This demonstration page uses our WeatherBlox Daily Observations layout. Learn more.

Left ArrowRight Arrow

39.01783, -85.05884

Hourly Observations for March 31, 2018

Temp ( °F °C ) Dew Point ( °F °C ) Humidity (%) Winds ( mph kmh ) Pressure ( in mb ) Visibility ( mi km ) Precip ( " mm )
12:52 am 00:52 Clear 36 2.2 35 1.7 97 97 SSW 6 9 30.26 1025 9 14 N/A
1:52 am 01:52 Clear 33 0.6 33 0.6 100 100 S 6 9 30.27 1025 9 14 N/A
2:52 am 02:52 Clear 32 undefined 32 undefined 100 100 S 5 7 30.26 1025 7 11 N/A
3:52 am 03:52 Clear with Mist and Fog 34 1.1 34 1.1 100 100 S 5 7 30.26 1025 6 10 N/A
4:52 am 04:52 Clear with Mist and Fog 35 1.7 35 1.7 100 100 S 3 6 30.24 1024 6 10 N/A
5:52 am 05:52 Clear 33 0.6 33 0.6 100 100 S 6 9 30.23 1024 10 16 N/A
6:52 am 06:52 Partly Cloudy with Mist and Fog 34 1.1 34 1.1 100 100 S 8 13 30.23 1024 5 8 N/A
7:52 am 07:52 Partly Cloudy with Mist and Fog 35 1.7 34 1.1 96 96 S 7 11 30.23 1024 3 5 N/A
8:52 am 08:52 Partly Cloudy with Mist and Fog 40 4.4 39 3.9 97 97 S 9 15 30.22 1024 5 8 N/A
9:52 am 09:52 Partly Cloudy 46 7.8 39 3.9 77 77 S 9 15 30.21 1023 10 16 N/A
10:52 am 10:52 Partly Cloudy 51 10.6 37 2.8 59 59 S 14 22 30.22 1023 10 16 N/A
11:52 am 11:52 Partly Cloudy 54 12.2 38 3.3 55 55 SSW 16 26 30.19 1022 10 16 N/A
12:52 pm 12:52 Partly Cloudy 56 13.3 38 3.3 51 51 SSW 21 33 30.15 1021 10 16 N/A
1:52 pm 13:52 Mostly Cloudy 58 14.4 36 2.2 44 44 SW 16 26 30.13 1020 10 16 N/A
2:52 pm 14:52 Mostly Cloudy 59 15 38 3.3 46 46 S 23 37 30.08 1019 10 16 N/A
3:52 pm 15:52 Mostly Cloudy 61 16.1 38 3.3 43 43 SSW 15 24 30.06 1018 10 16 N/A
4:52 pm 16:52 Cloudy 59 15 35 1.7 41 41 SW 14 22 30.03 1017 10 16 N/A
5:52 pm 17:52 Cloudy 59 15 34 1.1 39 39 WSW 7 11 30.02 1017 10 16 N/A
6:52 pm 18:52 Cloudy 58 14.4 34 1.1 41 41 SW 10 17 30.03 1017 10 16 N/A
7:52 pm 19:52 Cloudy with Light Rain 53 11.7 41 5 64 64 WSW 9 15 30.05 1018 7 11 0.01 0.25
8:52 pm 20:52 Cloudy with Light Rain 50 10 44 6.7 80 80 W 14 22 30.06 1018 7 11 0.08 2.03
9:52 pm 21:52 Cloudy with Light Rain 50 10 45 7.2 83 83 WSW 8 13 30.06 1018 6 10 0.04 1.02
10:52 pm 22:52 Cloudy with Light Rain 49 9.4 46 7.8 90 90 SW 10 17 30.07 1018 7 11 0.05 1.27
11:52 pm 23:52 Cloudy with Light Rain 49 9.4 46 7.8 90 90 SW 9 15 30.07 1018 10 16 0.03 0.76

Powered by AerisWeather